Szeged, Hungary

9:24 AM CEST on September 27, 2016 (GMT +0200)
Szeged

Weather History for LHUD - September, 2013

Change the Weather History Date:

Monday, September 9, 2013

  Actual Average (LRAR) Record (LRAR)
Temperature  
Mean Temperature 62 °F -  
Max Temperature 72 °F 72 °F 88 °F (2016)
Min Temperature 51 °F 51 °F 42 °F (2000)
Degree Days  
Heating Degree Days 4    
Growing Degree Days 12 (Base 50)    
Moisture  
Dew Point 51 °F    
Average Humidity 69    
Maximum Humidity 94    
Minimum Humidity 43    
Precipitation  
Precipitation 0.08 in - - ()
Sea Level Pressure  
Sea Level Pressure 30.07 in    
Wind  
Wind Speed 6 mph ()    
Max Wind Speed 14 mph    
Max Gust Speed -    
Visibility 6.7 miles    
Events Rain    
Averages and records for this station are not official NWS values.
T = Trace of Precipitation, MM = Missing Value Source: Averaged Metar Reports

Daily Weather History Graph

Daily Weather History Graph

Search for Another Location

Airport or City:

Trip Planner

Search our weather history database for the weather conditions in past years. The results will help you decide how hot, cold, wet, or windy it might be!

Date:

Astronomy

Sep. 09, 2013 Rise Set
Actual Time 6:10 AM CEST 7:02 PM CEST
Civil Twilight 5:39 AM CEST 7:33 PM CEST
Nautical Twilight 5:03 AM CEST 8:09 PM CEST
Astronomical Twilight 4:24 AM CEST 8:47 PM CEST
Moon 10:28 AM CEST (9/9) 8:48 PM CEST (9/9)
Length of Visible Light 13h 53m
Length of Day
12h 52m
Waxing Crescent, 16% of the Moon is Illuminated
Sep 9
Waxing Crescent
Sep 12
First Quarter
Sep 19
Full
Sep 27
Last Quarter
Oct 5
New

Hourly Weather History & Observations

Time (CEST) Temp. Dew Point Humidity Pressure Visibility Wind Dir Wind Speed Gust Speed Precip Events Conditions
12:45 AM 53.6 °F 42.8 °F 67% 30.15 in - SE 3.5 mph - N/A   Clear
1:45 AM 51.8 °F 42.8 °F 71% 30.12 in - SE 4.6 mph - N/A   Clear
2:00 AM 53 °F 43 °F 59% 30.14 in 19 mi SE 4.5 mph - -   Partly Cloudy
2:45 AM 59.0 °F 42.8 °F 55% 30.09 in - ESE 8.1 mph - N/A   Clear
3:45 AM 53.6 °F 42.8 °F 67% 30.12 in - SE 3.5 mph - N/A   Clear
4:45 AM 57.2 °F 44.6 °F 63% 30.09 in - ESE 8.1 mph - N/A   Clear
5:45 AM 55.4 °F 46.4 °F 72% 30.06 in - ESE 6.9 mph - N/A   Clear
6:15 AM 57.2 °F 46.4 °F 67% 30.06 in - SE 10.4 mph - N/A   Clear
6:45 AM 57.2 °F 46.4 °F 67% 30.06 in - SE 8.1 mph - N/A   Clear
7:15 AM 57.2 °F 46.4 °F 67% 30.06 in - SE 6.9 mph - N/A   Clear
7:45 AM 59.0 °F 46.4 °F 63% 30.06 in - SE 9.2 mph - N/A   Clear
8:00 AM 60 °F 47 °F 51% 30.06 in 19 mi SE 8.9 mph - -   Partly Cloudy
8:15 AM 62.6 °F 46.4 °F 55% 30.06 in - SE 10.4 mph - N/A   Clear
8:45 AM 66.2 °F 46.4 °F 49% 30.06 in - SSE 10.4 mph - N/A   Clear
9:15 AM 68.0 °F 46.4 °F 46% 30.06 in - SSE 12.7 mph - N/A   Clear
9:45 AM 69.8 °F 46.4 °F 43% 30.06 in - SSE 12.7 mph - N/A   Clear
10:15 AM 69.8 °F 46.4 °F 43% 30.04 in - SE 13.8 mph - N/A   Clear
10:45 AM 69.8 °F 46.4 °F 43% 30.04 in 6.2 mi SSE 10.4 mph - N/A Rain Light Rain
10:46 AM 69.8 °F 46.4 °F 43% 30.04 in 6.2 mi SSE 9.2 mph - N/A Rain Light Rain
11:15 AM 69.8 °F 48.2 °F 46% 30.04 in 6.2 mi SE 8.1 mph - N/A Rain Light Rain
11:45 AM 69.8 °F 48.2 °F 46% 30.06 in - SSE 4.6 mph - N/A   Clear
12:15 PM 71.6 °F 48.2 °F 43% 30.06 in 6.2 mi Calm Calm - N/A Rain Light Rain
12:45 PM 71.6 °F 48.2 °F 43% 30.06 in - West 2.3 mph - N/A   Clear
1:15 PM 71.6 °F 48.2 °F 43% 30.06 in 6.2 mi West 5.8 mph - N/A Rain Light Rain
1:45 PM 66.2 °F 53.6 °F 64% 30.09 in 6.2 mi NW 6.9 mph - N/A Rain Light Rain
2:00 PM 67 °F 54 °F 54% 30.08 in 11 mi NW 6.7 mph - - Rain Light Rain
2:15 PM 64.4 °F 55.4 °F 73% 30.06 in 6.2 mi North 5.8 mph - N/A Rain Light Rain
2:45 PM 62.6 °F 57.2 °F 82% 30.06 in 6.2 mi NNE 4.6 mph - N/A Rain Light Rain
3:15 PM 62.6 °F 59.0 °F 88% 30.06 in 6.2 mi ENE 4.6 mph - N/A Rain Light Rain
3:45 PM 62.6 °F 59.0 °F 88% 30.06 in 6.2 mi ENE 4.6 mph - N/A Rain Light Rain
4:15 PM 62.6 °F 59.0 °F 88% 30.06 in 6.2 mi NNE 3.5 mph - N/A Rain Light Rain
4:45 PM 62.6 °F 59.0 °F 88% 30.06 in 6.2 mi NNW 3.5 mph - N/A Rain Light Rain
5:15 PM 62.6 °F 59.0 °F 88% 30.06 in 6.2 mi NNW 4.6 mph - N/A Rain Light Rain
5:45 PM 62.6 °F 59.0 °F 88% 30.06 in - North 5.8 mph - N/A   Clear
6:15 PM 62.6 °F 59.0 °F 88% 30.06 in - North 8.1 mph - N/A   Clear
6:45 PM 62.6 °F 59.0 °F 88% 30.09 in - NNW 6.9 mph - N/A   Clear
7:15 PM 60.8 °F 59.0 °F 94% 30.09 in 5.6 mi NNW 5.8 mph - N/A   Mostly Cloudy
7:45 PM 60.8 °F 59.0 °F 94% 30.09 in 5.0 mi NNW 5.8 mph - N/A   Mostly Cloudy
8:00 PM 61 °F 58 °F 87% 30.09 in 5 mi NNW 6.7 mph - -   Partly Cloudy
8:15 PM 60.8 °F 57.2 °F 88% 30.09 in 5.0 mi NNW 6.9 mph - N/A   Mostly Cloudy
8:45 PM 59.0 °F 57.2 °F 94% 30.09 in 3.7 mi NNW 8.1 mph - N/A   Mostly Cloudy
9:15 PM 59.0 °F 55.4 °F 88% 30.09 in 3.7 mi NNW 9.2 mph - N/A   Mostly Cloudy
9:45 PM 57.2 °F 55.4 °F 94% 30.09 in 4.3 mi North 3.5 mph - N/A   Mostly Cloudy
10:45 PM 55.4 °F 53.6 °F 94% 30.09 in 4.3 mi North 3.5 mph - N/A   Partly Cloudy
11:45 PM 53.6 °F 51.8 °F 94% 30.12 in 1.6 mi WNW 2.3 mph - N/A   Scattered Clouds